Back to catalog

THAICOM 6

AliveCommunicationsGEO
NORAD 39500·PAYLOAD·🇹🇭 Thailand

Launched Jan 6, 2014 from Cape Canaveral Space Force Station

Loading…

TLE

FreshSource: Space-Track

Epoch: Sep 14, 2026, 14:10 UTC

1 39500U 14002A   26257.59070108 -.00000129  00000-0  00000-0 0  9999
2 39500   0.0581 110.4887 0003709  42.4736 131.7800  1.00272223 46354

Track THAICOM 6 in real time with AllMySat

Download on the App Store